Regional Weather Roundup
Issued by NWS

Home | Current Version | Previous Version | Graphics & Text | Print | Product List | Glossary On
Versions: 1 2 3 4 5 6 7 8 9 10 11 12 13 14 15 16 17 18 19 20 21 22 23 24 25 26 27 28 29 30 31 32 33 34 35 36 37 38 39 40 41 42 43 44 45 46 47 48 49 50
000
ASUS43 KFSD 012102
RWRSD

WEATHER ROUNDUP FOR SOUTH DAKOTA
NATIONAL WEATHER SERVICE SIOUX FALLS SD
400 PM CDT WED JUL 01 2015

NOTE: "FAIR" INDICATES FEW OR NO CLOUDS BELOW 12,000 FEET WITH NO
SIGNIFICANT WEATHER AND/OR OBSTRUCTIONS TO VISIBILITY.


SDZ001>005-009-010-012>017-012200-
NORTHWEST AND NORTH CENTRAL SOUTH DAKOTA

CITY           SKY/WX    TMP DP  RH WIND       PRES   REMARKS
BUFFALO          N/A     78  62  57 N5        29.95S
FAITH            N/A     77  62  59 N9        29.98F
MOBRIDGE       MOSUNNY   80  66  62 CALM      29.92F
$$

SDZ012>016-024>037-041>051-057-063-072>074-012200-
SOUTHWEST AND SOUTH CENTRAL SOUTH DAKOTA

CITY           SKY/WX    TMP DP  RH WIND       PRES   REMARKS
RAPID CTY ARPT SUNNY     84  60  44 N24G31    29.99F
PIERRE         SUNNY     82  64  54 CALM      29.90F
CUSTER         CLOUDY    79  48  33 N5        30.14S
PHILIP         MOSUNNY   81  68  64 N12       29.95S
PINE RIDGE     SUNNY     85  60  42 N8        30.00F
WINNER         CLOUDY    83  65  54 N9        29.91R
$$

SDZ004>011-016>023-039-040-012200-
NORTHEAST SOUTH DAKOTA

CITY           SKY/WX    TMP DP  RH WIND       PRES   REMARKS
ABERDEEN       CLOUDY    78  63  59 SE7       29.93F
WATERTOWN      CLOUDY    69  59  70 SE7       29.97S
BROOKINGS      CLOUDY    72  59  64 E12       29.98R
SISSETON         N/A     72  61  68 S10       29.97R
$$

SDZ017-020-022-023-036>040-048>070-012200-
SOUTHEAST SOUTH DAKOTA

CITY           SKY/WX    TMP DP  RH WIND       PRES   REMARKS
SIOUX FALLS    PTSUNNY   74  64  71 SE14      29.94S
HURON          MOSUNNY   78  65  63 VRB5      29.91S
CHAMBERLAIN    CLOUDY    77  66  68 E3        29.92S
MITCHELL       PTSUNNY   78  67  68 SE6       29.92R
YANKTON        CLOUDY    75  66  73 E10       29.90S
$$

ABBREVIATIONS USED IN REMARKS
   TC - TEMPERATURE IN CELSIUS
  WCI - WIND CHILL INDEX
   HX - HEAT INDEX
  VSB - VISIBILITY




USA.gov is the U.S. government's official web portal to all federal, state and local government web resources and services.